Weather History for Two Harbors, MN

Change the Weather History Date:

Sunday, July 21, 2013

  Actual Average Record
Temperature  
Mean Temperature 56 °F -  
Max Temperature 66 °F 74 °F 91 °F (2004)
Min Temperature 46 °F 54 °F 42 °F (2007)
Degree Days  
Heating Degree Days 9    
Growing Degree Days 6 (Base 50)    
Moisture  
Dew Point 46 °F    
Average Humidity 71    
Maximum Humidity 87    
Minimum Humidity 48    
Precipitation  
Precipitation 0.00 in - - ()
Sea Level Pressure  
Sea Level Pressure 29.96 in    
Wind  
Wind Speed 6 mph (NE)    
Max Wind Speed 14 mph    
Max Gust Speed 18 mph    
Visibility 10 miles    
Events      
Averages and records for this station are not official NWS values.
T = Trace of Precipitation, MM = Missing Value Source: NWS Daily Summary

Daily Weather History Graph

Daily Weather History Graph

Search for Another Location

Airport:

Trip Planner

Search our weather history database for the weather conditions in past years. The results will help you decide how hot, cold, wet, or windy it might be!

Date:

Astronomy

Jul. 21, 2013 Rise Set
Actual Time 5:33 AM CDT 8:52 PM CDT
Civil Twilight 4:56 AM CDT 9:29 PM CDT
Nautical Twilight 4:07 AM CDT 10:18 PM CDT
Astronomical Twilight 3:05 AM CDT 11:19 PM CDT
Moon 7:47 PM CDT (7/21) 4:21 AM CDT (7/21)
Length of Visible Light 16h 33m
Length of Day
15h 19m
Waxing Gibbous, 98% of the Moon is Illuminated
Jul 21
Waxing Gibbous
Jul 22
Full
Jul 29
Last Quarter
Aug 6
New
Aug 14
First Quarter

Hourly Weather History & Observations

Time (CDT) Temp. Windchill Dew Point Humidity Pressure Visibility Wind Dir Wind Speed Gust Speed Precip Events Conditions
12:13 AM 48.2 °F - 42.8 °F 82% 30.02 in 10.0 mi North 4.6 mph - N/A   Clear
12:33 AM 48.2 °F - 42.8 °F 82% 30.02 in 10.0 mi North 4.6 mph - N/A   Clear
12:54 AM 46.4 °F - 42.8 °F 87% 30.02 in 10.0 mi Calm Calm - N/A   Clear
1:14 AM 46.4 °F 45.2 °F 42.8 °F 87% 30.02 in 10.0 mi North 3.5 mph - N/A   Clear
1:34 AM 48.2 °F - 42.8 °F 82% 30.01 in 10.0 mi North 4.6 mph - N/A   Clear
1:52 AM 48.2 °F - 42.8 °F 82% 30.02 in 10.0 mi North - - N/A   Clear
2:14 AM 46.4 °F 44.3 °F 42.8 °F 87% 30.02 in 10.0 mi North 4.6 mph - N/A   Clear
2:34 AM 46.4 °F 45.2 °F 42.8 °F 87% 30.02 in 10.0 mi North 3.5 mph - N/A   Clear
2:54 AM 46.4 °F 44.3 °F 42.8 °F 87% 30.01 in 10.0 mi North 4.6 mph - N/A   Clear
3:13 AM 46.4 °F 44.3 °F 42.8 °F 87% 30.01 in 10.0 mi North 4.6 mph - N/A   Clear
3:34 AM 46.4 °F 43.5 °F 42.8 °F 87% 30.00 in 10.0 mi North 5.8 mph - N/A   Clear
3:53 AM 46.4 °F 44.3 °F 42.8 °F 87% 30.01 in 10.0 mi North 4.6 mph - N/A   Clear
4:13 AM 46.4 °F 44.3 °F 42.8 °F 87% 30.00 in 10.0 mi North 4.6 mph - N/A   Scattered Clouds
4:33 AM 46.4 °F 45.2 °F 42.8 °F 87% 30.00 in 10.0 mi North 3.5 mph - N/A   Mostly Cloudy
4:54 AM 46.4 °F 45.2 °F 42.8 °F 87% 30.00 in 10.0 mi North 3.5 mph - N/A   Scattered Clouds
5:13 AM 46.4 °F 45.2 °F 41.0 °F 81% 30.00 in 10.0 mi North 3.5 mph - N/A   Clear
5:33 AM 46.4 °F 44.3 °F 41.0 °F 81% 30.00 in 10.0 mi North 4.6 mph - N/A   Clear
5:54 AM 46.4 °F 45.2 °F 42.8 °F 87% 30.00 in 10.0 mi North 3.5 mph - N/A   Clear
6:13 AM 46.4 °F 45.2 °F 42.8 °F 87% 30.00 in 10.0 mi North 3.5 mph - N/A   Clear
6:33 AM 48.2 °F - 44.6 °F 87% 30.00 in 10.0 mi NNE 4.6 mph - N/A   Clear
6:54 AM 50.0 °F - 44.6 °F 82% 30.01 in 10.0 mi Calm Calm - N/A   Clear
7:13 AM 51.8 °F - 46.4 °F 82% 30.00 in 10.0 mi NNE 3.5 mph - N/A   Clear
7:33 AM 53.6 °F - 48.2 °F 82% 30.00 in 10.0 mi NE 5.8 mph - N/A   Clear
7:53 AM 55.4 °F - 48.2 °F 77% 30.01 in 10.0 mi ENE 6.9 mph - N/A   Scattered Clouds
8:13 AM 55.4 °F - 48.2 °F 77% 30.01 in 10.0 mi East 6.9 mph - N/A   Scattered Clouds
8:33 AM 57.2 °F - 50.0 °F 77% 30.01 in 10.0 mi ENE 9.2 mph - N/A   Mostly Cloudy
8:54 AM 57.2 °F - 50.0 °F 77% 30.00 in 10.0 mi ENE 8.1 mph - N/A   Overcast
9:13 AM 57.2 °F - 50.0 °F 77% 30.01 in 10.0 mi ENE 6.9 mph - N/A   Overcast
9:33 AM 57.2 °F - 50.0 °F 77% 30.01 in 10.0 mi ENE 6.9 mph - N/A   Overcast
9:54 AM 57.2 °F - 48.2 °F 72% 30.01 in 10.0 mi ENE 8.1 mph - N/A   Overcast
10:13 AM 57.2 °F - 48.2 °F 72% 30.00 in 10.0 mi East 8.1 mph - N/A   Overcast
10:33 AM 57.2 °F - 48.2 °F 72% 29.99 in 10.0 mi East 8.1 mph - N/A   Overcast
10:54 AM 59.0 °F - 48.2 °F 67% 29.99 in 10.0 mi East 8.1 mph - N/A   Overcast
11:13 AM 62.6 °F - 48.2 °F 59% 29.98 in 10.0 mi ENE 10.4 mph - N/A   Scattered Clouds
11:33 AM 62.6 °F - 48.2 °F 59% 29.99 in 10.0 mi ENE 10.4 mph - N/A   Clear
11:54 AM 62.6 °F - 48.2 °F 59% 29.99 in 10.0 mi ENE 8.1 mph - N/A   Clear
12:13 PM 64.4 °F - 51.8 °F 64% 29.99 in 10.0 mi East 6.9 mph - N/A   Clear
12:33 PM 64.4 °F - 51.8 °F 64% 29.98 in 10.0 mi East 9.2 mph - N/A   Clear
12:54 PM 64.4 °F - 50.0 °F 59% 29.97 in 10.0 mi East 9.2 mph - N/A   Clear
1:13 PM 64.4 °F - 50.0 °F 59% 29.97 in 10.0 mi East 10.4 mph - N/A   Clear
1:33 PM 64.4 °F - 50.0 °F 59% 29.96 in 10.0 mi ENE 9.2 mph - N/A   Clear
1:54 PM 66.2 °F - 50.0 °F 56% 29.95 in 10.0 mi ENE 10.4 mph - N/A   Clear
2:13 PM 66.2 °F - 50.0 °F 56% 29.95 in 10.0 mi East 12.7 mph - N/A   Clear
2:34 PM 66.2 °F - 50.0 °F 56% 29.94 in 10.0 mi East 10.4 mph - N/A   Clear
2:53 PM 66.2 °F - 48.2 °F 52% 29.93 in 10.0 mi East 11.5 mph - N/A   Clear
3:13 PM 64.4 °F - 48.2 °F 56% 29.93 in 10.0 mi East 11.5 mph - N/A   Clear
3:34 PM 66.2 °F - 46.4 °F 49% 29.93 in 10.0 mi East 13.8 mph - N/A   Clear
3:53 PM 66.2 °F - 48.2 °F 52% 29.92 in 10.0 mi East 10.4 mph - N/A   Clear
4:13 PM 66.2 °F - 48.2 °F 52% 29.92 in 10.0 mi ENE 12.7 mph 18.4 mph N/A   Clear
4:34 PM 66.2 °F - 48.2 °F 52% 29.91 in 10.0 mi East 12.7 mph - N/A   Clear
4:53 PM 66.2 °F - 48.2 °F 52% 29.92 in 10.0 mi ENE 10.4 mph - N/A   Clear
5:13 PM 64.4 °F - 46.4 °F 52% 29.90 in 10.0 mi East 10.4 mph 16.1 mph N/A   Clear
5:34 PM 64.4 °F - 44.6 °F 49% 29.91 in 10.0 mi ENE 13.8 mph - N/A   Clear
5:53 PM 64.4 °F - 46.4 °F 52% 29.89 in 10.0 mi East 11.5 mph - N/A   Clear
6:13 PM 62.6 °F - 42.8 °F 48% 29.89 in 10.0 mi ENE 12.7 mph - N/A   Clear
6:34 PM 60.8 °F - 44.6 °F 55% 29.89 in 10.0 mi ENE 12.7 mph - N/A   Clear
6:53 PM 60.8 °F - 42.8 °F 52% 29.88 in 10.0 mi ENE 13.8 mph - N/A   Clear
7:13 PM 59.0 °F - 44.6 °F 59% 29.89 in 10.0 mi ENE 13.8 mph - N/A   Clear
7:34 PM 57.2 °F - 44.6 °F 63% 29.89 in 10.0 mi ENE 9.2 mph 17.3 mph N/A   Clear
7:53 PM 57.2 °F - 44.6 °F 63% 29.88 in 10.0 mi ENE 8.1 mph - N/A   Clear
8:13 PM 55.4 °F - 44.6 °F 67% 29.88 in 10.0 mi ENE 10.4 mph - N/A   Clear
8:34 PM 55.4 °F - 46.4 °F 72% 29.88 in 10.0 mi ENE 8.1 mph - N/A   Clear
8:53 PM 53.6 °F - 46.4 °F 77% 29.89 in 10.0 mi ENE 8.1 mph - N/A   Clear
9:13 PM 53.6 °F - 46.4 °F 77% 29.89 in 10.0 mi NE 4.6 mph - N/A   Clear
9:33 PM 53.6 °F - 46.4 °F 77% 29.89 in 10.0 mi NE 5.8 mph - N/A   Clear
9:53 PM 51.8 °F - 46.4 °F 82% 29.89 in 10.0 mi NE 3.5 mph - N/A   Clear
10:13 PM 51.8 °F - 46.4 °F 82% 29.88 in 10.0 mi NE 4.6 mph - N/A   Clear
10:33 PM 51.8 °F - 46.4 °F 82% 29.87 in 10.0 mi NE 3.5 mph - N/A   Clear
10:53 PM 51.8 °F - 46.4 °F 82% 29.87 in 10.0 mi ENE 4.6 mph - N/A   Scattered Clouds
11:13 PM 51.8 °F - 46.4 °F 82% 29.88 in 10.0 mi NE 3.5 mph - N/A   Scattered Clouds
11:33 PM 53.6 °F - 46.4 °F 77% 29.86 in 10.0 mi NE 4.6 mph - N/A   Overcast
11:53 PM 51.8 °F - 46.4 °F 82% 29.85 in 10.0 mi Calm Calm - N/A   Scattered Clouds